Regional Weather Roundup
Issued by NWS

Home | Current Version | Previous Version | Text Only | Print | Product List | Glossary Off
Versions: 1 2 3 4 5 6 7 8 9 10 11 12 13 14 15 16 17 18 19 20 21 22 23 24 25 26 27 28 29 30 31 32 33 34 35 36 37 38 39 40 41 42 43 44 45 46 47 48 49 50

317
ASUS43 KLMK 180310
RWRKY
KENTUCKY REGIONAL WEATHER ROUNDUP
NATIONAL WEATHER SERVICE LOUISVILLE KY
1000 PM EST TUE JAN 17 2017

NOTE "FAIR" INDICATES FEW OR NO CLOUDS BELOW 12,000 FEET
WITH NO SIGNIFICANT WEATHER AND/OR OBSTRUCTIONS TO VISIBILITY.

KYZ001>023-026-027-061>063-070>075-180400-
WESTERN AND SOUTH CENTRAL KENTUCKY

CITY           SKY/WX    TMP DP  RH WIND       PRES   REMARKS
PADUCAH        CLOUDY    45  39  79 W5        30.15F
HENDERSON      CLOUDY    45  37  76 W7        30.14S
OWENSBORO      CLOUDY    44  40  85 W12       30.15R
HOPKINSVILLE   CLOUDY    46  41  81 NW8       30.15R
BOWLING GREEN  CLOUDY    50  42  74 W12       30.13R
GLASGOW        CLOUDY    50  43  77 W8        30.12R
$$

KYZ024-025-028>034-038-045-046-053-180400-
NORTH CENTRAL KENTUCKY

CITY           SKY/WX    TMP DP  RH WIND       PRES   REMARKS
LOUISVILLE/SDF DRIZZLE   46  40  79 W15       30.10R
LOUISVILLE/LOU CLOUDY    47  39  74 W9        30.10S
FORT KNOX      CLOUDY    45  41  87 W13       30.09R
$$

KYZ035>037-039>044-047>052-055>060-089>105-180400-
NORTHEAST KENTUCKY

CITY           SKY/WX    TMP DP  RH WIND       PRES   REMARKS
LEXINGTON      CLOUDY    48  41  76 W13       30.07R
COVINGTON      DRIZZLE   45  40  82 W9        30.04R
FRANKFORT      CLOUDY    48  40  73 NW7       30.06R
$$

KYZ054-064>069-076>088-106>120-180400-
SOUTHEAST KENTUCKY

CITY           SKY/WX    TMP DP  RH WIND       PRES   REMARKS
JACKSON        MOCLDY    56  46  69 W9G30     30.02R
LONDON         CLOUDY    56  51  84 W12       30.05R
SOMERSET       CLOUDY    54  46  76 W8        30.09R
MIDDLESBORO    RAIN      63  59  88 NW9       30.04S
MONTICELLO     NOT AVBL
$$





USA.gov is the U.S. government's official web portal to all federal, state and local government web resources and services.